Change the Weather History Date:

Tuesday, July 9, 2013

  Actual Average Record
Temperature  
Mean Temperature 83 °F 83 °F  
Max Temperature 91 °F 92 °F 100 °F (1935)
Min Temperature 74 °F 75 °F 65 °F (1947)
Cooling Degree Days 18 18  
Month to date cooling degree days 142 162  
Year to date cooling degree days 1147 1274  
Since 1 June cooling degree days 683 660  
Growing Degree Days 33 (Base 50)    
Moisture  
Dew Point 74 °F    
Average Humidity 73    
Maximum Humidity 94    
Minimum Humidity 52    
Precipitation  
Precipitation 0.40 in 0.23 in 2.37 in (1934)
Month to date precipitation 1.70 2.14  
Year to date precipitation 36.98 31.84  
Sea Level Pressure  
Sea Level Pressure 30.13 in    
Wind  
Wind Speed 3 mph (SSW)    
Max Wind Speed 13 mph    
Max Gust Speed 15 mph    
Visibility 8 miles    
Events Rain    
T = Trace of Precipitation, MM = Missing Value Source: NWS Daily Summary

Daily Weather History Graph

Daily Weather History Graph

Search for Another Location

Airport or City:

Trip Planner

Search our weather history database for the weather conditions in past years. The results will help you decide how hot, cold, wet, or windy it might be!

Date:

Astronomy

Jul. 09, 2013 Rise Set
Actual Time 6:13 AM CDT 8:12 PM CDT
Civil Twilight 5:46 AM CDT 8:39 PM CDT
Nautical Twilight 5:13 AM CDT 9:12 PM CDT
Astronomical Twilight 4:38 AM CDT 9:47 PM CDT
Moon 7:29 AM CDT (7/9) 9:01 PM CDT (7/9)
Length of Visible Light 14h 53m
Length of Day
13h 59m
New Moon, 2% of the Moon is Illuminated
Jul 9
New Moon
Jul 15
First Quarter
Jul 22
Full
Jul 29
Last Quarter
Aug 6
New

Hourly Weather History & Observations

Time (CDT) Temp. Heat Index Dew Point Humidity Pressure Visibility Wind Dir Wind Speed Gust Speed Precip Events Conditions
12:53 AM 78.1 °F - 75.9 °F 93% 30.14 in 10.0 mi Calm Calm - N/A   Clear
1:53 AM 77.0 °F - 75.0 °F 94% 30.13 in 9.0 mi Calm Calm - N/A   Clear
2:53 AM 75.9 °F - 73.9 °F 94% 30.13 in 8.0 mi Calm Calm - N/A   Clear
3:53 AM 75.9 °F - 73.9 °F 94% 30.14 in 8.0 mi Calm Calm - N/A   Clear
4:53 AM 75.9 °F - 73.9 °F 94% 30.13 in 8.0 mi Calm Calm - N/A   Clear
5:53 AM 75.9 °F - 73.9 °F 94% 30.14 in 9.0 mi Calm Calm - N/A   Clear
6:28 AM 75.2 °F - 73.4 °F 94% 30.14 in 5.0 mi Calm Calm - N/A   Scattered Clouds
6:53 AM 75.0 °F - 73.0 °F 94% 30.15 in 7.0 mi Calm Calm - N/A   Partly Cloudy
7:53 AM 79.0 °F - 75.9 °F 90% 30.17 in 10.0 mi Calm Calm - N/A   Clear
8:53 AM 82.0 °F 89.4 °F 75.9 °F 82% 30.19 in 10.0 mi Calm Calm - N/A   Clear
9:17 AM 84.2 °F 92.3 °F 75.2 °F 74% 30.18 in 10.0 mi Calm Calm - N/A   Mostly Cloudy
9:53 AM 84.0 °F 91.2 °F 73.9 °F 72% 30.18 in 10.0 mi Calm Calm - N/A   Mostly Cloudy
10:00 AM 84.2 °F 90.9 °F 73.4 °F 70% 30.18 in 10.0 mi SSE 3.5 mph - N/A   Scattered Clouds
10:53 AM 87.1 °F 92.8 °F 71.1 °F 59% 30.18 in 10.0 mi East 3.5 mph - N/A   Scattered Clouds
11:53 AM 89.1 °F 97.0 °F 73.0 °F 59% 30.17 in 10.0 mi Variable 3.5 mph - N/A   Scattered Clouds
12:53 PM 90.0 °F 96.9 °F 72.0 °F 55% 30.16 in 10.0 mi Variable 3.5 mph - N/A   Clear
1:53 PM 90.0 °F 97.9 °F 73.0 °F 57% 30.14 in 10.0 mi ESE 5.8 mph - N/A   Mostly Cloudy
2:53 PM 91.0 °F 99.3 °F 73.0 °F 55% 30.13 in 10.0 mi ENE 5.8 mph - N/A   Mostly Cloudy
3:53 PM 91.0 °F 98.2 °F 72.0 °F 53% 30.11 in 10.0 mi Calm Calm - N/A   Clear
4:53 PM 89.1 °F 97.0 °F 73.0 °F 59% 30.09 in 10.0 mi SW 10.4 mph - N/A   Mostly Cloudy
5:11 PM 84.2 °F 92.3 °F 75.2 °F 74% 30.11 in 1.5 mi WSW 8.1 mph - 0.10 in Rain Heavy Rain
5:18 PM 82.4 °F 88.2 °F 73.4 °F 74% 30.11 in 0.5 mi NW 11.5 mph - 0.29 in Rain Heavy Rain
5:26 PM 80.6 °F 86.2 °F 75.2 °F 84% 30.09 in 1.0 mi NW 8.1 mph - 0.37 in Rain Heavy Rain
5:33 PM 82.4 °F 89.5 °F 75.2 °F 79% 30.09 in 3.0 mi WNW 6.9 mph - 0.39 in Rain Rain
5:53 PM 84.0 °F 92.6 °F 75.9 °F 76% 30.09 in 10.0 mi Calm Calm - 0.40 in   Overcast
6:53 PM 84.9 °F 93.3 °F 75.0 °F 72% 30.09 in 10.0 mi SSW 8.1 mph - N/A   Scattered Clouds
7:53 PM 84.0 °F 91.2 °F 73.9 °F 72% 30.09 in 10.0 mi South 5.8 mph - N/A   Clear
8:53 PM 82.0 °F 87.9 °F 73.9 °F 76% 30.08 in 10.0 mi South 6.9 mph - N/A   Clear
9:53 PM 81.0 °F 86.2 °F 73.9 °F 79% 30.09 in 10.0 mi South 6.9 mph - N/A   Clear
10:53 PM 80.1 °F 84.5 °F 73.9 °F 81% 30.10 in 10.0 mi SSW 4.6 mph - N/A   Clear
11:53 PM 79.0 °F - 75.0 °F 88% 30.10 in 10.0 mi SW 4.6 mph - N/A   Clear